Content
SEND FEEDBACK

Daily
Averages
Monthly
Summary
United States of America

MANASSA, COLORADO


Home > North America > United States > Colorado
Elevation: 7600 feet     Latitude: 37 15N     Longitude: 105 56W

WEATHER
 
SELECT A DAY
Number of Records: 189,211;   Date Range: 1/1/95 - 4/16/14
 
SHARE

PRINT THIS DATA

[ ← Previous Day ]
WEATHER ALMANAC - FEBRUARY 13, 2013
[ Next Day → ]
[ °C ]   °F
Weather ElementAverageHighLow
Temperature17.9 °F37 °F (3:52 pm) (4:52 am)
Dewpoint5.8 °F14 °F (5:52 pm)-5.1 °F (4:52 am)
Humidity62.9 %84 % (1:52 am)33 % (2:52 pm)
Barometer30.23 in30.32 in (6:52 am)30.12 in (2:52 pm)
Wind Speed3.7 mph8.1 mph (4:52 pm)
Weather ElementAverage
Visibility10 mi
Wind DirectionSSE (168.3 °)

Weather ElementTotal
Precipitation---
Heating Degree Days46.5 (Base 65)
Averaged from 23 records on February 13, 2013
WEATHER CONDITIONS BREAKOUT
WIND DIRECTION BREAKOUT
WEATHER BY HOUR - FEBRUARY 13, 2013
[ °C ]   °F
Local TimeTemperatureDewpointHumidityBarometerVisibilityWind DirectionWind SpeedGust SpeedPrecipitationEventsConditions
1:52 AM3.9 °F0.0 °F84 %30.27 in10.0 miWest (270°)5.8 mphClear
2:52 AM5.0 °F-0.9 °F76 %30.24 in10.0 miWNW (300°)4.6 mphClear
3:52 AM1.9 °F-2.9 °F80 %30.25 in10.0 miWNW (300°)3.5 mphClear
4:52 AM0.0 °F-5.1 °F79 %30.27 in10.0 miSW (230°)4.6 mphClear
5:52 AM1.9 °F-4.0 °F76 %30.28 in10.0 miWest (260°)5.8 mphClear
6:52 AM1.9 °F-4.0 °F76 %30.32 in10.0 miWest (270°)4.6 mphClear
7:52 AM7.0 °F1.0 °F77 %30.32 in10.0 miSW (230°)3.5 mphClear
8:52 AM15.1 °F7.0 °F70 %30.30 in10.0 miSW (230°)4.6 mphClear
9:52 AM21.9 °F7.0 °F53 %30.26 in10.0 miCalmClear
10:52 AM27.0 °F7.0 °F43 %30.25 in10.0 miCalmClear
11:52 AM28.9 °F7.0 °F40 %30.22 in10.0 miCalmClear
12:52 PM33.1 °F8.1 °F35 %30.16 in10.0 miVariable3.5 mphClear
1:52 PM33.1 °F9.0 °F37 %30.14 in10.0 miSSE (160°)4.6 mphClear
2:52 PM36.0 °F9.0 °F33 %30.12 in10.0 miEast (80°)5.8 mphClear
3:52 PM37.0 °F10.0 °F33 %30.14 in10.0 miNW (320°)4.6 mphClear
4:52 PM34.0 °F12.0 °F40 %30.18 in10.0 miWSW (250°)8.1 mphClear
5:52 PM27.0 °F14.0 °F58 %30.21 in10.0 miWest (280°)8.1 mphClear
6:52 PM24.1 °F14.0 °F65 %30.26 in10.0 miWNW (300°)5.8 mphClear
7:52 PM19.0 °F10.9 °F71 %30.26 in10.0 miWest (280°)4.6 mphClear
8:52 PM16.0 °F10.9 °F81 %30.24 in10.0 miCalmClear
9:52 PM14.0 °F8.1 °F77 %30.22 in10.0 miCalmClear
10:52 PM12.9 °F8.1 °F81 %30.20 in10.0 miCalmClear
11:52 PM10.9 °F6.1 °F81 %30.20 in10.0 miESE (110°)3.5 mphClear
Hourly data recorded from KALS, located 13.40 miles away from Manassa, Colorado







STORIES FROM OUR PARTNERS